Time,TemperatureF,DewpointF,PressureIn,WindDirection,WindDirectionDegrees,WindSpeedMPH,WindSpeedGustMPH,Humidity,HourlyPrecipIn,Conditions,Clouds,dailyrainin,SoftwareType,DateUTC
2013-03-16 00:02:00,31.0,25.0,29.85,East,90,1.0,3.0,77,0.00,,,0.00,,2013-03-16 04:02:00,
2013-03-16 00:13:00,31.0,25.0,29.85,East,90,1.0,3.0,77,0.00,,,0.00,,2013-03-16 04:13:00,
2013-03-16 00:23:00,31.0,25.0,29.84,East,90,0.0,7.0,77,0.00,,,0.00,,2013-03-16 04:23:00,
2013-03-16 00:33:00,31.0,25.0,29.84,East,90,3.0,3.0,77,0.00,,,0.00,,2013-03-16 04:33:00,
2013-03-16 00:43:00,31.0,25.0,29.84,East,90,3.0,3.0,77,0.00,,,0.00,,2013-03-16 04:43:00,
2013-03-16 00:53:00,31.0,24.0,29.84,East,90,0.0,1.0,76,0.00,,,0.00,,2013-03-16 04:53:00,
2013-03-16 01:02:00,31.0,24.0,29.84,East,90,1.0,3.0,76,0.00,,,0.00,,2013-03-16 05:02:00,
2013-03-16 01:12:00,31.0,24.0,29.84,East,90,1.0,3.0,76,0.00,,,0.00,,2013-03-16 05:12:00,
2013-03-16 01:22:00,30.0,23.0,29.85,ENE,68,1.0,7.0,75,0.00,,,0.00,,2013-03-16 05:22:00,
2013-03-16 01:32:00,30.0,23.0,29.85,East,90,1.0,2.0,75,0.00,,,0.00,,2013-03-16 05:32:00,
2013-03-16 01:42:00,30.0,23.0,29.85,East,90,1.0,2.0,75,0.00,,,0.00,,2013-03-16 05:42:00,
2013-03-16 01:53:00,30.0,23.0,29.84,East,90,3.0,3.0,75,0.00,,,0.00,,2013-03-16 05:53:00,
2013-03-16 02:02:00,30.0,23.0,29.84,ESE,113,1.0,5.0,75,0.00,,,0.00,,2013-03-16 06:02:00,
2013-03-16 02:12:00,30.0,23.0,29.84,ESE,113,1.0,5.0,75,0.00,,,0.00,,2013-03-16 06:12:00,
2013-03-16 02:22:00,29.0,22.0,29.84,East,90,6.0,9.0,76,0.00,,,0.00,,2013-03-16 06:22:00,
2013-03-16 02:32:00,29.0,23.0,29.83,ENE,68,3.0,7.0,78,0.00,,,0.00,,2013-03-16 06:32:00,
2013-03-16 02:42:00,29.0,23.0,29.83,ENE,68,3.0,7.0,78,0.00,,,0.00,,2013-03-16 06:42:00,
2013-03-16 02:52:00,28.0,22.0,29.83,ENE,68,0.0,2.0,79,0.00,,,0.00,,2013-03-16 06:52:00,
2013-03-16 03:02:00,28.0,23.0,29.84,East,90,2.0,2.0,80,0.00,,,0.00,,2013-03-16 07:02:00,
2013-03-16 03:12:00,28.0,23.0,29.84,East,90,2.0,2.0,80,0.00,,,0.00,,2013-03-16 07:12:00,
2013-03-16 03:22:00,27.0,22.0,29.83,ENE,68,0.0,0.0,80,0.00,,,0.00,,2013-03-16 07:22:00,
2013-03-16 03:32:00,27.0,22.0,29.83,ENE,68,0.0,0.0,81,0.00,,,0.00,,2013-03-16 07:32:00,
2013-03-16 03:42:00,27.0,22.0,29.83,ENE,68,0.0,0.0,81,0.00,,,0.00,,2013-03-16 07:42:00,
2013-03-16 03:52:00,27.0,22.0,29.83,ENE,68,2.0,0.0,82,0.00,,,0.00,,2013-03-16 07:52:00,
2013-03-16 04:02:00,26.0,21.0,29.83,East,90,3.0,3.0,81,0.00,,,0.00,,2013-03-16 08:02:00,
2013-03-16 04:12:00,26.0,21.0,29.83,East,90,3.0,3.0,81,0.00,,,0.00,,2013-03-16 08:12:00,
2013-03-16 04:23:00,25.0,20.0,29.83,ENE,68,0.0,0.0,82,0.00,,,0.00,,2013-03-16 08:23:00,
2013-03-16 04:32:00,25.0,20.0,29.83,NE,45,2.0,0.0,82,0.00,,,0.00,,2013-03-16 08:32:00,
2013-03-16 04:42:00,25.0,20.0,29.83,NE,45,2.0,0.0,82,0.00,,,0.00,,2013-03-16 08:42:00,
2013-03-16 04:52:00,24.0,20.0,29.81,ENE,68,2.0,5.0,83,0.00,,,0.00,,2013-03-16 08:52:00,
2013-03-16 05:02:00,24.0,20.0,29.81,ENE,68,0.0,0.0,83,0.00,,,0.00,,2013-03-16 09:02:00,
2013-03-16 05:12:00,24.0,20.0,29.81,ENE,68,0.0,0.0,83,0.00,,,0.00,,2013-03-16 09:12:00,
2013-03-16 05:22:00,24.0,20.0,29.81,NE,45,0.0,0.0,83,0.00,,,0.00,,2013-03-16 09:22:00,
2013-03-16 05:33:00,24.0,20.0,29.81,NE,45,0.0,0.0,83,0.00,,,0.00,,2013-03-16 09:33:00,
2013-03-16 05:42:00,24.0,20.0,29.81,NE,45,0.0,0.0,83,0.00,,,0.00,,2013-03-16 09:42:00,
2013-03-16 05:53:00,24.0,20.0,29.80,NE,45,0.0,0.0,83,0.00,,,0.00,,2013-03-16 09:53:00,
2013-03-16 06:03:00,24.0,20.0,29.81,NE,45,0.0,0.0,83,0.00,,,0.00,,2013-03-16 10:03:00,
2013-03-16 06:12:00,24.0,20.0,29.81,NE,45,0.0,0.0,83,0.00,,,0.00,,2013-03-16 10:12:00,
2013-03-16 06:23:00,24.0,20.0,29.81,NE,45,0.0,0.0,83,0.00,,,0.00,,2013-03-16 10:23:00,
2013-03-16 06:32:00,24.0,20.0,29.79,NE,45,0.0,0.0,83,0.00,,,0.00,,2013-03-16 10:32:00,
2013-03-16 06:42:00,24.0,20.0,29.79,NE,45,0.0,0.0,83,0.00,,,0.00,,2013-03-16 10:42:00,
2013-03-16 06:53:00,24.0,20.0,29.80,NNE,23,0.0,0.0,83,0.00,,,0.00,,2013-03-16 10:53:00,
2013-03-16 07:03:00,24.0,20.0,29.80,NNE,23,0.0,0.0,83,0.00,,,0.00,,2013-03-16 11:03:00,
2013-03-16 07:12:00,24.0,20.0,29.80,NNE,23,0.0,0.0,83,0.00,,,0.00,,2013-03-16 11:12:00,
2013-03-16 07:22:00,23.0,19.0,29.81,North,0,0.0,0.0,83,0.00,,,0.00,,2013-03-16 11:22:00,
2013-03-16 07:32:00,23.0,19.0,29.80,ENE,68,0.0,0.0,83,0.00,,,0.00,,2013-03-16 11:32:00,
2013-03-16 07:43:00,23.0,19.0,29.80,ENE,68,0.0,0.0,83,0.00,,,0.00,,2013-03-16 11:43:00,
2013-03-16 07:53:00,23.0,19.0,29.79,North,0,0.0,0.0,83,0.00,,,0.00,,2013-03-16 11:53:00,
2013-03-16 08:02:00,23.0,19.0,29.80,NNE,23,0.0,0.0,83,0.00,,,0.00,,2013-03-16 12:02:00,
2013-03-16 08:12:00,23.0,19.0,29.80,NNE,23,0.0,0.0,83,0.00,,,0.00,,2013-03-16 12:12:00,
2013-03-16 08:22:00,23.0,19.0,29.80,North,0,0.0,0.0,83,0.00,,,0.00,,2013-03-16 12:22:00,
2013-03-16 08:32:00,23.0,19.0,29.81,NNE,23,0.0,0.0,83,0.00,,,0.00,,2013-03-16 12:32:00,
2013-03-16 08:42:00,23.0,19.0,29.81,NNE,23,0.0,0.0,83,0.00,,,0.00,,2013-03-16 12:42:00,
2013-03-16 08:53:00,23.0,19.0,29.82,North,0,0.0,0.0,83,0.00,,,0.00,,2013-03-16 12:53:00,
2013-03-16 09:02:00,23.0,19.0,29.83,North,0,0.0,0.0,83,0.00,,,0.00,,2013-03-16 13:02:00,
2013-03-16 09:12:00,23.0,19.0,29.83,North,0,0.0,0.0,83,0.00,,,0.00,,2013-03-16 13:12:00,
2013-03-16 09:22:00,23.0,19.0,29.82,NNW,338,0.0,0.0,83,0.00,,,0.00,,2013-03-16 13:22:00,
2013-03-16 09:32:00,23.0,19.0,29.82,NNE,23,0.0,0.0,83,0.00,,,0.00,,2013-03-16 13:32:00,
2013-03-16 09:42:00,23.0,19.0,29.82,NNE,23,0.0,0.0,83,0.00,,,0.00,,2013-03-16 13:42:00,
2013-03-16 09:53:00,23.0,19.0,29.83,NNW,338,0.0,0.0,83,0.00,,,0.00,,2013-03-16 13:53:00,
2013-03-16 10:02:00,24.0,20.0,29.83,North,0,0.0,0.0,83,0.00,,,0.00,,2013-03-16 14:02:00,
2013-03-16 10:22:00,24.0,20.0,29.83,NNW,338,0.0,0.0,83,0.00,,,0.00,,2013-03-16 14:22:00,
2013-03-16 10:32:00,24.0,20.0,29.83,North,0,0.0,0.0,83,0.00,,,0.00,,2013-03-16 14:32:00,
2013-03-16 10:42:00,24.0,20.0,29.83,North,0,0.0,0.0,83,0.00,,,0.00,,2013-03-16 14:42:00,
2013-03-16 10:52:00,25.0,21.0,29.83,NNW,338,2.0,6.0,83,0.00,,,0.00,,2013-03-16 14:52:00,
2013-03-16 11:03:00,26.0,22.0,29.83,NNW,338,2.0,3.0,83,0.00,,,0.00,,2013-03-16 15:03:00,
2013-03-16 11:12:00,26.0,22.0,29.83,NNW,338,2.0,3.0,83,0.00,,,0.00,,2013-03-16 15:12:00,
2013-03-16 11:23:00,27.0,23.0,29.83,NNW,338,0.0,0.0,83,0.00,,,0.00,,2013-03-16 15:23:00,
2013-03-16 11:33:00,28.0,24.0,29.82,NNE,23,0.0,0.0,83,0.00,,,0.00,,2013-03-16 15:33:00,
2013-03-16 11:43:00,28.0,24.0,29.82,NNE,23,0.0,0.0,83,0.00,,,0.00,,2013-03-16 15:43:00,
2013-03-16 11:53:00,28.0,24.0,29.83,North,0,0.0,0.0,83,0.00,,,0.00,,2013-03-16 15:53:00,
2013-03-16 12:03:00,29.0,24.0,29.83,North,0,0.0,0.0,82,0.00,,,0.00,,2013-03-16 16:03:00,
2013-03-16 12:12:00,29.0,24.0,29.83,North,0,0.0,0.0,82,0.00,,,0.00,,2013-03-16 16:12:00,
2013-03-16 12:23:00,29.0,24.0,29.84,NE,45,2.0,9.0,82,0.00,,,0.00,,2013-03-16 16:23:00,
2013-03-16 12:33:00,29.0,24.0,29.84,ENE,68,0.0,1.0,81,0.00,,,0.00,,2013-03-16 16:33:00,
2013-03-16 12:42:00,29.0,24.0,29.84,ENE,68,0.0,1.0,81,0.00,,,0.00,,2013-03-16 16:42:00,
2013-03-16 12:53:00,30.0,25.0,29.84,North,0,0.0,0.0,80,0.00,,,0.00,,2013-03-16 16:53:00,
2013-03-16 13:03:00,30.0,25.0,29.85,NE,45,0.0,0.0,80,0.00,,,0.00,,2013-03-16 17:03:00,
2013-03-16 13:13:00,30.0,25.0,29.85,NE,45,0.0,0.0,80,0.00,,,0.00,,2013-03-16 17:13:00,
2013-03-16 13:23:00,30.0,24.0,29.86,ENE,68,1.0,7.0,79,0.00,,,0.00,,2013-03-16 17:23:00,
2013-03-16 13:32:00,30.0,24.0,29.87,North,0,1.0,5.0,79,0.00,,,0.00,,2013-03-16 17:32:00,
2013-03-16 13:42:00,30.0,24.0,29.87,North,0,1.0,5.0,79,0.00,,,0.00,,2013-03-16 17:42:00,
2013-03-16 13:53:00,31.0,25.0,29.87,NE,45,0.0,0.0,78,0.00,,,0.00,,2013-03-16 17:53:00,
2013-03-16 14:02:00,31.0,25.0,29.88,East,90,1.0,3.0,77,0.00,,,0.00,,2013-03-16 18:02:00,
2013-03-16 14:13:00,31.0,25.0,29.88,East,90,1.0,3.0,77,0.00,,,0.00,,2013-03-16 18:13:00,
2013-03-16 14:23:00,30.0,23.0,29.89,North,0,0.0,2.0,76,0.00,,,0.00,,2013-03-16 18:23:00,
2013-03-16 14:33:00,30.0,23.0,29.90,North,0,1.0,3.0,76,0.00,,,0.00,,2013-03-16 18:33:00,
2013-03-16 14:43:00,30.0,23.0,29.90,North,0,1.0,3.0,76,0.00,,,0.00,,2013-03-16 18:43:00,
2013-03-16 14:53:00,31.0,24.0,29.89,NW,315,1.0,1.0,76,0.00,,,0.00,,2013-03-16 18:53:00,
2013-03-16 15:02:00,31.0,24.0,29.90,North,0,6.0,6.0,75,0.02,,,0.02,,2013-03-16 19:02:00,
2013-03-16 15:12:00,31.0,24.0,29.90,North,0,6.0,6.0,75,0.02,,,0.02,,2013-03-16 19:12:00,
2013-03-16 15:22:00,31.0,24.0,29.90,NE,45,0.0,6.0,75,0.02,,,0.02,,2013-03-16 19:22:00,
2013-03-16 15:32:00,30.0,23.0,29.90,NNE,23,3.0,7.0,75,0.02,,,0.02,,2013-03-16 19:32:00,
2013-03-16 15:42:00,30.0,23.0,29.90,NNE,23,3.0,7.0,75,0.02,,,0.02,,2013-03-16 19:42:00,
2013-03-16 15:53:00,30.0,23.0,29.91,NE,45,2.0,3.0,75,0.02,,,0.02,,2013-03-16 19:53:00,
2013-03-16 16:02:00,30.0,23.0,29.91,North,0,0.0,2.0,75,0.00,,,0.02,,2013-03-16 20:02:00,
2013-03-16 16:12:00,30.0,23.0,29.91,North,0,0.0,2.0,75,0.00,,,0.02,,2013-03-16 20:12:00,
2013-03-16 16:22:00,31.0,24.0,29.90,North,0,0.0,0.0,75,0.00,,,0.02,,2013-03-16 20:22:00,
2013-03-16 16:32:00,31.0,24.0,29.90,North,0,0.0,7.0,75,0.02,,,0.04,,2013-03-16 20:32:00,
2013-03-16 16:42:00,31.0,24.0,29.90,North,0,0.0,7.0,75,0.02,,,0.04,,2013-03-16 20:42:00,
2013-03-16 16:52:00,32.0,25.0,29.90,North,0,0.0,0.0,75,0.02,,,0.04,,2013-03-16 20:52:00,
2013-03-16 17:02:00,31.0,23.0,29.90,NE,45,2.0,0.0,73,0.02,,,0.04,,2013-03-16 21:02:00,
2013-03-16 17:12:00,31.0,23.0,29.90,NE,45,2.0,0.0,73,0.02,,,0.04,,2013-03-16 21:12:00,
2013-03-16 17:22:00,30.0,22.0,29.91,NE,45,0.0,0.0,73,0.02,,,0.04,,2013-03-16 21:22:00,
2013-03-16 17:33:00,30.0,22.0,29.91,NNE,23,0.0,0.0,73,0.00,,,0.04,,2013-03-16 21:33:00,
2013-03-16 17:43:00,30.0,22.0,29.91,NNE,23,0.0,0.0,73,0.00,,,0.04,,2013-03-16 21:43:00,
2013-03-16 17:52:00,29.0,22.0,29.91,NE,45,0.0,0.0,74,0.00,,,0.04,,2013-03-16 21:52:00,
2013-03-16 18:03:00,29.0,22.0,29.92,NNE,23,0.0,0.0,74,0.00,,,0.04,,2013-03-16 22:03:00,
2013-03-16 18:13:00,29.0,22.0,29.92,NNE,23,0.0,0.0,74,0.00,,,0.04,,2013-03-16 22:13:00,
2013-03-16 18:23:00,29.0,22.0,29.92,East,90,0.0,0.0,74,0.00,,,0.04,,2013-03-16 22:23:00,
2013-03-16 18:33:00,28.0,21.0,29.93,ENE,68,0.0,0.0,74,0.00,,,0.04,,2013-03-16 22:33:00,
2013-03-16 18:42:00,28.0,21.0,29.93,ENE,68,0.0,0.0,74,0.00,,,0.04,,2013-03-16 22:42:00,
2013-03-16 18:52:00,28.0,21.0,29.93,ENE,68,0.0,0.0,75,0.00,,,0.04,,2013-03-16 22:52:00,
2013-03-16 19:02:00,28.0,21.0,29.93,East,90,0.0,0.0,75,0.00,,,0.04,,2013-03-16 23:02:00,
2013-03-16 19:13:00,28.0,21.0,29.93,East,90,0.0,0.0,75,0.00,,,0.04,,2013-03-16 23:13:00,
2013-03-16 19:22:00,27.0,20.0,29.94,ENE,68,0.0,0.0,76,0.00,,,0.04,,2013-03-16 23:22:00,
2013-03-16 19:33:00,27.0,20.0,29.94,NE,45,0.0,0.0,76,0.00,,,0.04,,2013-03-16 23:33:00,
2013-03-16 19:42:00,27.0,20.0,29.94,NE,45,0.0,0.0,76,0.00,,,0.04,,2013-03-16 23:42:00,
2013-03-16 19:52:00,26.0,20.0,29.94,East,90,0.0,0.0,77,0.00,,,0.04,,2013-03-16 23:52:00,
2013-03-16 20:02:00,26.0,20.0,29.94,East,90,0.0,0.0,77,0.00,,,0.04,,2013-03-17 00:02:00,
2013-03-16 20:12:00,26.0,20.0,29.94,East,90,0.0,0.0,77,0.00,,,0.04,,2013-03-17 00:12:00,
2013-03-16 20:22:00,25.0,19.0,29.94,East,90,0.0,0.0,77,0.00,,,0.04,,2013-03-17 00:22:00,
2013-03-16 20:32:00,25.0,19.0,29.95,East,90,0.0,0.0,78,0.00,,,0.04,,2013-03-17 00:32:00,
2013-03-16 20:42:00,25.0,19.0,29.95,East,90,0.0,0.0,78,0.00,,,0.04,,2013-03-17 00:42:00,
2013-03-16 20:52:00,25.0,19.0,29.94,East,90,0.0,0.0,78,0.00,,,0.04,,2013-03-17 00:52:00,
2013-03-16 21:02:00,25.0,19.0,29.95,East,90,0.0,0.0,78,0.00,,,0.04,,2013-03-17 01:02:00,
2013-03-16 21:12:00,25.0,19.0,29.95,East,90,0.0,0.0,78,0.00,,,0.04,,2013-03-17 01:12:00,
2013-03-16 21:22:00,25.0,19.0,29.95,East,90,0.0,0.0,79,0.00,,,0.04,,2013-03-17 01:22:00,
2013-03-16 21:32:00,25.0,19.0,29.96,East,90,0.0,0.0,79,0.00,,,0.04,,2013-03-17 01:32:00,
2013-03-16 21:42:00,25.0,19.0,29.96,East,90,0.0,0.0,79,0.00,,,0.04,,2013-03-17 01:42:00,
2013-03-16 21:52:00,25.0,19.0,29.96,East,90,0.0,0.0,79,0.00,,,0.04,,2013-03-17 01:52:00,
2013-03-16 22:03:00,25.0,19.0,29.96,East,90,0.0,0.0,79,0.00,,,0.04,,2013-03-17 02:03:00,
2013-03-16 22:13:00,25.0,19.0,29.96,East,90,0.0,0.0,79,0.00,,,0.04,,2013-03-17 02:13:00,
2013-03-16 22:22:00,25.0,19.0,29.97,East,90,0.0,0.0,79,0.00,,,0.04,,2013-03-17 02:22:00,
2013-03-16 22:33:00,25.0,20.0,29.97,East,90,0.0,0.0,80,0.00,,,0.04,,2013-03-17 02:33:00,
2013-03-16 22:43:00,25.0,20.0,29.97,East,90,0.0,0.0,80,0.00,,,0.04,,2013-03-17 02:43:00,
2013-03-16 22:52:00,26.0,21.0,29.98,East,90,0.0,0.0,80,0.00,,,0.04,,2013-03-17 02:52:00,
2013-03-16 23:02:00,26.0,21.0,29.98,East,90,0.0,0.0,80,0.00,,,0.04,,2013-03-17 03:02:00,
2013-03-16 23:12:00,26.0,21.0,29.98,East,90,0.0,0.0,80,0.00,,,0.04,,2013-03-17 03:12:00,
2013-03-16 23:22:00,26.0,21.0,29.99,NNW,338,0.0,0.0,80,0.00,,,0.04,,2013-03-17 03:22:00,
2013-03-16 23:33:00,26.0,21.0,29.99,NNW,338,0.0,0.0,80,0.00,,,0.04,,2013-03-17 03:33:00,
2013-03-16 23:43:00,26.0,21.0,29.99,NNW,338,0.0,0.0,80,0.00,,,0.04,,2013-03-17 03:43:00,
2013-03-16 23:52:00,26.0,21.0,29.99,NW,315,0.0,0.0,80,0.00,,,0.04,,2013-03-17 03:52:00,